Time,TemperatureF,DewpointF,PressureIn,WindDirection,WindDirectionDegrees,WindSpeedMPH,WindSpeedGustMPH,Humidity,HourlyPrecipIn,Conditions,Clouds,dailyrainin,SolarRadiationWatts/m^2,SoftwareType,DateUTC
2013-03-21 00:22:00,27.0,17.0,-100.00,SSE,157,9.0,17.0,66,0.00,,,0.00,0.000000,,2013-03-21 06:22:00,
2013-03-21 00:32:00,27.0,17.0,-100.00,SSE,157,9.0,17.0,66,0.00,,,0.00,0.000000,,2013-03-21 06:32:00,
2013-03-21 00:42:00,27.0,17.0,-100.00,SSE,157,9.0,17.0,66,0.00,,,0.00,0.000000,,2013-03-21 06:42:00,
2013-03-21 00:52:00,27.0,17.0,-100.00,SSE,157,9.0,17.0,66,0.00,,,0.00,0.000000,,2013-03-21 06:52:00,
2013-03-21 01:12:00,27.0,17.0,-100.00,SSE,160,8.0,16.0,66,0.00,,,0.00,0.000000,,2013-03-21 07:12:00,
2013-03-21 01:22:00,27.0,17.0,-100.00,SSE,160,8.0,16.0,66,0.00,,,0.00,0.000000,,2013-03-21 07:22:00,
2013-03-21 01:32:00,27.0,17.0,-100.00,SSE,160,8.0,16.0,66,0.00,,,0.00,0.000000,,2013-03-21 07:32:00,
2013-03-21 01:42:00,27.0,17.0,-100.00,SSE,160,8.0,16.0,66,0.00,,,0.00,0.000000,,2013-03-21 07:42:00,
2013-03-21 01:52:00,27.0,17.0,-100.00,SSE,160,8.0,16.0,66,0.00,,,0.00,0.000000,,2013-03-21 07:52:00,
2013-03-21 02:13:00,27.0,18.0,-100.00,South,171,7.0,13.0,68,0.00,,,0.00,0.000000,,2013-03-21 08:13:00,
2013-03-21 02:23:00,27.0,18.0,-100.00,South,171,7.0,13.0,68,0.00,,,0.00,0.000000,,2013-03-21 08:23:00,
2013-03-21 02:33:00,27.0,18.0,-100.00,South,171,7.0,13.0,68,0.00,,,0.00,0.000000,,2013-03-21 08:33:00,
2013-03-21 02:42:00,27.0,18.0,-100.00,South,171,7.0,13.0,68,0.00,,,0.00,0.000000,,2013-03-21 08:42:00,
2013-03-21 02:52:00,27.0,18.0,-100.00,South,171,7.0,13.0,68,0.00,,,0.00,0.000000,,2013-03-21 08:52:00,
2013-03-21 03:21:00,26.0,17.0,-100.00,SSE,166,6.0,15.0,67,0.00,,,0.00,0.000000,,2013-03-21 09:21:00,
2013-03-21 03:33:00,26.0,17.0,-100.00,SSE,166,6.0,15.0,67,0.00,,,0.00,0.000000,,2013-03-21 09:33:00,
2013-03-21 03:43:00,26.0,17.0,-100.00,SSE,166,6.0,15.0,67,0.00,,,0.00,0.000000,,2013-03-21 09:43:00,
2013-03-21 03:53:00,26.0,17.0,-100.00,SSE,166,6.0,15.0,67,0.00,,,0.00,0.000000,,2013-03-21 09:53:00,
2013-03-21 04:23:00,25.0,16.0,-100.00,NNE,30,2.0,17.0,67,0.00,,,0.00,0.000000,,2013-03-21 10:23:00,
2013-03-21 04:33:00,25.0,16.0,-100.00,NNE,30,2.0,17.0,67,0.00,,,0.00,0.000000,,2013-03-21 10:33:00,
2013-03-21 04:42:00,25.0,16.0,-100.00,NNE,30,2.0,17.0,67,0.00,,,0.00,0.000000,,2013-03-21 10:42:00,
2013-03-21 04:53:00,25.0,16.0,-100.00,NNE,30,2.0,17.0,67,0.00,,,0.00,0.000000,,2013-03-21 10:53:00,
2013-03-21 05:22:00,22.0,15.0,-100.00,NE,38,1.0,4.0,74,0.00,,,0.00,0.000000,,2013-03-21 11:22:00,
2013-03-21 05:33:00,22.0,15.0,-100.00,NE,38,1.0,4.0,74,0.00,,,0.00,0.000000,,2013-03-21 11:33:00,
2013-03-21 05:43:00,22.0,15.0,-100.00,NE,38,1.0,4.0,74,0.00,,,0.00,0.000000,,2013-03-21 11:43:00,
2013-03-21 05:52:00,22.0,15.0,-100.00,NE,38,1.0,4.0,74,0.00,,,0.00,0.000000,,2013-03-21 11:52:00,
2013-03-21 06:12:00,23.0,15.0,-100.00,SSW,205,2.0,4.0,70,0.00,,,0.00,0.000000,,2013-03-21 12:12:00,
2013-03-21 06:22:00,23.0,15.0,-100.00,SSW,205,2.0,4.0,70,0.00,,,0.00,0.000000,,2013-03-21 12:22:00,
2013-03-21 06:33:00,23.0,15.0,-100.00,SSW,205,2.0,4.0,70,0.00,,,0.00,0.000000,,2013-03-21 12:33:00,
2013-03-21 06:42:00,23.0,15.0,-100.00,SSW,205,2.0,4.0,70,0.00,,,0.00,0.000000,,2013-03-21 12:42:00,
2013-03-21 06:52:00,23.0,15.0,-100.00,SSW,205,2.0,4.0,70,0.00,,,0.00,0.000000,,2013-03-21 12:52:00,
2013-03-21 07:22:00,25.0,15.0,-100.00,SSE,159,5.0,7.0,64,0.00,,,0.00,0.000000,,2013-03-21 13:22:00,
2013-03-21 07:32:00,25.0,15.0,-100.00,SSE,159,5.0,7.0,64,0.00,,,0.00,0.000000,,2013-03-21 13:32:00,
2013-03-21 07:42:00,25.0,15.0,-100.00,SSE,159,5.0,7.0,64,0.00,,,0.00,0.000000,,2013-03-21 13:42:00,
2013-03-21 07:52:00,25.0,15.0,-100.00,SSE,159,5.0,7.0,64,0.00,,,0.00,0.000000,,2013-03-21 13:52:00,
2013-03-21 08:12:00,24.0,16.0,-100.00,South,187,4.0,8.0,71,0.00,,,0.00,9.000000,,2013-03-21 14:12:00,
2013-03-21 08:22:00,24.0,16.0,-100.00,South,187,4.0,8.0,71,0.00,,,0.00,9.000000,,2013-03-21 14:22:00,
2013-03-21 08:32:00,24.0,16.0,-100.00,South,187,4.0,8.0,71,0.00,,,0.00,9.000000,,2013-03-21 14:32:00,
2013-03-21 08:42:00,24.0,16.0,-100.00,South,187,4.0,8.0,71,0.00,,,0.00,9.000000,,2013-03-21 14:42:00,
2013-03-21 08:52:00,24.0,16.0,-100.00,South,187,4.0,8.0,71,0.00,,,0.00,9.000000,,2013-03-21 14:52:00,
2013-03-21 09:22:00,25.0,22.0,-100.00,ENE,77,1.0,5.0,87,0.00,,,0.00,41.000000,,2013-03-21 15:22:00,
2013-03-21 09:33:00,25.0,22.0,-100.00,ENE,77,1.0,5.0,87,0.00,,,0.00,41.000000,,2013-03-21 15:33:00,
2013-03-21 09:42:00,25.0,22.0,-100.00,ENE,77,1.0,5.0,87,0.00,,,0.00,41.000000,,2013-03-21 15:42:00,
2013-03-21 09:53:00,25.0,22.0,-100.00,ENE,77,1.0,5.0,87,0.00,,,0.00,41.000000,,2013-03-21 15:53:00,
2013-03-21 10:23:00,31.0,21.0,-100.00,WNW,294,5.0,10.0,65,0.00,,,0.00,128.000000,,2013-03-21 16:23:00,
2013-03-21 10:33:00,31.0,21.0,-100.00,WNW,294,5.0,10.0,65,0.00,,,0.00,128.000000,,2013-03-21 16:33:00,
2013-03-21 10:42:00,31.0,21.0,-100.00,WNW,294,5.0,10.0,65,0.00,,,0.00,128.000000,,2013-03-21 16:42:00,
2013-03-21 10:52:00,31.0,21.0,-100.00,WNW,294,5.0,10.0,65,0.00,,,0.00,128.000000,,2013-03-21 16:52:00,
2013-03-21 11:23:00,34.0,21.0,-100.00,WNW,297,5.0,13.0,59,0.02,,,0.02,561.000000,,2013-03-21 17:23:00,
2013-03-21 11:33:00,34.0,21.0,-100.00,WNW,297,5.0,13.0,59,0.02,,,0.02,561.000000,,2013-03-21 17:33:00,
2013-03-21 11:42:00,34.0,21.0,-100.00,WNW,297,5.0,13.0,59,0.02,,,0.02,561.000000,,2013-03-21 17:42:00,
2013-03-21 11:52:00,34.0,21.0,-100.00,WNW,297,5.0,13.0,59,0.02,,,0.02,561.000000,,2013-03-21 17:52:00,
2013-03-21 12:12:00,34.0,15.0,-100.00,WSW,246,8.0,18.0,46,0.00,,,0.02,602.000000,,2013-03-21 18:12:00,
2013-03-21 12:23:00,34.0,15.0,-100.00,WSW,246,8.0,18.0,46,0.00,,,0.02,602.000000,,2013-03-21 18:23:00,
2013-03-21 12:32:00,34.0,15.0,-100.00,WSW,246,8.0,18.0,46,0.00,,,0.02,602.000000,,2013-03-21 18:32:00,
2013-03-21 12:42:00,34.0,15.0,-100.00,WSW,246,8.0,18.0,46,0.00,,,0.02,602.000000,,2013-03-21 18:42:00,
2013-03-21 12:52:00,34.0,15.0,-100.00,WSW,246,8.0,18.0,46,0.00,,,0.02,602.000000,,2013-03-21 18:52:00,
2013-03-21 13:12:00,36.0,19.0,-100.00,WNW,294,6.0,32.0,49,0.00,,,0.02,455.000000,,2013-03-21 19:12:00,
2013-03-21 13:22:00,36.0,19.0,-100.00,WNW,294,6.0,32.0,49,0.00,,,0.02,455.000000,,2013-03-21 19:22:00,
2013-03-21 13:32:00,36.0,19.0,-100.00,WNW,294,6.0,32.0,49,0.00,,,0.02,455.000000,,2013-03-21 19:32:00,
2013-03-21 13:42:00,36.0,19.0,-100.00,WNW,294,6.0,32.0,49,0.00,,,0.02,455.000000,,2013-03-21 19:42:00,
2013-03-21 13:52:00,36.0,19.0,-100.00,WNW,294,6.0,32.0,49,0.00,,,0.02,455.000000,,2013-03-21 19:52:00,
2013-03-21 14:22:00,27.0,21.0,-100.00,West,260,9.0,20.0,79,0.00,,,0.02,393.000000,,2013-03-21 20:22:00,
2013-03-21 14:33:00,27.0,21.0,-100.00,West,260,9.0,20.0,79,0.00,,,0.02,393.000000,,2013-03-21 20:33:00,
2013-03-21 14:42:00,27.0,21.0,-100.00,West,260,9.0,20.0,79,0.00,,,0.02,393.000000,,2013-03-21 20:42:00,
2013-03-21 14:52:00,27.0,21.0,-100.00,West,260,9.0,20.0,79,0.00,,,0.02,393.000000,,2013-03-21 20:52:00,
2013-03-21 15:22:00,33.0,15.0,-100.00,WNW,295,7.0,20.0,48,0.00,,,0.02,623.000000,,2013-03-21 21:22:00,
2013-03-21 15:33:00,33.0,15.0,-100.00,WNW,295,7.0,20.0,48,0.00,,,0.02,623.000000,,2013-03-21 21:33:00,
2013-03-21 15:43:00,33.0,15.0,-100.00,WNW,295,7.0,20.0,48,0.00,,,0.02,623.000000,,2013-03-21 21:43:00,
2013-03-21 15:53:00,33.0,15.0,-100.00,WNW,295,7.0,20.0,48,0.00,,,0.02,623.000000,,2013-03-21 21:53:00,
2013-03-21 16:23:00,31.0,10.0,-100.00,WNW,288,11.0,27.0,40,0.00,,,0.02,739.000000,,2013-03-21 22:23:00,
2013-03-21 16:33:00,31.0,10.0,-100.00,WNW,288,11.0,27.0,40,0.00,,,0.02,739.000000,,2013-03-21 22:33:00,
2013-03-21 16:42:00,31.0,10.0,-100.00,WNW,288,11.0,27.0,40,0.00,,,0.02,739.000000,,2013-03-21 22:42:00,
2013-03-21 16:52:00,31.0,10.0,-100.00,WNW,288,11.0,27.0,40,0.00,,,0.02,739.000000,,2013-03-21 22:52:00,
2013-03-21 17:22:00,29.0,8.0,-100.00,WSW,254,12.0,19.0,41,0.00,,,0.02,544.000000,,2013-03-21 23:22:00,
2013-03-21 17:32:00,29.0,8.0,-100.00,WSW,254,12.0,19.0,41,0.00,,,0.02,544.000000,,2013-03-21 23:32:00,
2013-03-21 17:42:00,29.0,8.0,-100.00,WSW,254,12.0,19.0,41,0.00,,,0.02,544.000000,,2013-03-21 23:42:00,
2013-03-21 17:52:00,29.0,8.0,-100.00,WSW,254,12.0,19.0,41,0.00,,,0.02,544.000000,,2013-03-21 23:52:00,
2013-03-21 18:22:00,28.0,9.0,-100.00,West,277,7.0,19.0,45,0.00,,,0.02,334.000000,,2013-03-22 00:22:00,
2013-03-21 18:32:00,28.0,9.0,-100.00,West,277,7.0,19.0,45,0.00,,,0.02,334.000000,,2013-03-22 00:32:00,
2013-03-21 18:42:00,28.0,9.0,-100.00,West,277,7.0,19.0,45,0.00,,,0.02,334.000000,,2013-03-22 00:42:00,
2013-03-21 18:52:00,28.0,9.0,-100.00,West,277,7.0,19.0,45,0.00,,,0.02,334.000000,,2013-03-22 00:52:00,
2013-03-21 19:12:00,19.0,10.0,-100.00,SSE,164,11.0,17.0,66,0.00,,,0.02,99.000000,,2013-03-22 01:12:00,
2013-03-21 19:22:00,19.0,10.0,-100.00,SSE,164,11.0,17.0,66,0.00,,,0.02,99.000000,,2013-03-22 01:22:00,
2013-03-21 19:32:00,19.0,10.0,-100.00,SSE,164,11.0,17.0,66,0.00,,,0.02,99.000000,,2013-03-22 01:32:00,
2013-03-21 19:43:00,19.0,10.0,-100.00,SSE,164,11.0,17.0,66,0.00,,,0.02,99.000000,,2013-03-22 01:43:00,
2013-03-21 19:52:00,19.0,10.0,-100.00,SSE,164,11.0,17.0,66,0.00,,,0.02,99.000000,,2013-03-22 01:52:00,
2013-03-21 20:22:00,19.0,7.0,-100.00,SSW,205,8.0,25.0,60,0.00,,,0.02,3.000000,,2013-03-22 02:22:00,
2013-03-21 20:32:00,19.0,7.0,-100.00,SSW,205,8.0,25.0,60,0.00,,,0.02,3.000000,,2013-03-22 02:32:00,
2013-03-21 20:43:00,19.0,7.0,-100.00,SSW,205,8.0,25.0,60,0.00,,,0.02,3.000000,,2013-03-22 02:43:00,
2013-03-21 20:52:00,19.0,7.0,-100.00,SSW,205,8.0,25.0,60,0.00,,,0.02,3.000000,,2013-03-22 02:52:00,
2013-03-21 21:22:00,19.0,3.0,-100.00,South,176,8.0,22.0,49,0.00,,,0.02,0.000000,,2013-03-22 03:22:00,
2013-03-21 21:33:00,19.0,3.0,-100.00,South,176,8.0,22.0,49,0.00,,,0.02,0.000000,,2013-03-22 03:33:00,
2013-03-21 21:43:00,19.0,3.0,-100.00,South,176,8.0,22.0,49,0.00,,,0.02,0.000000,,2013-03-22 03:43:00,
2013-03-21 21:52:00,19.0,3.0,-100.00,South,176,8.0,22.0,49,0.00,,,0.02,0.000000,,2013-03-22 03:52:00,
2013-03-21 22:12:00,19.0,6.0,-100.00,SSE,168,6.0,20.0,55,0.00,,,0.02,0.000000,,2013-03-22 04:12:00,
2013-03-21 22:23:00,19.0,6.0,-100.00,SSE,168,6.0,20.0,55,0.00,,,0.02,0.000000,,2013-03-22 04:23:00,
2013-03-21 22:32:00,19.0,6.0,-100.00,SSE,168,6.0,20.0,55,0.00,,,0.02,0.000000,,2013-03-22 04:32:00,
2013-03-21 22:43:00,19.0,6.0,-100.00,SSE,168,6.0,20.0,55,0.00,,,0.02,0.000000,,2013-03-22 04:43:00,
2013-03-21 22:52:00,19.0,6.0,-100.00,SSE,168,6.0,20.0,55,0.00,,,0.02,0.000000,,2013-03-22 04:52:00,
2013-03-21 23:12:00,18.0,6.0,-100.00,West,266,7.0,17.0,60,0.00,,,0.02,0.000000,,2013-03-22 05:12:00,
2013-03-21 23:22:00,18.0,6.0,-100.00,West,266,7.0,17.0,60,0.00,,,0.02,0.000000,,2013-03-22 05:22:00,
2013-03-21 23:32:00,18.0,6.0,-100.00,West,266,7.0,17.0,60,0.00,,,0.02,0.000000,,2013-03-22 05:32:00,
2013-03-21 23:42:00,18.0,6.0,-100.00,West,266,7.0,17.0,60,0.00,,,0.02,0.000000,,2013-03-22 05:42:00,
2013-03-21 23:52:00,18.0,6.0,-100.00,West,266,7.0,17.0,60,0.00,,,0.02,0.000000,,2013-03-22 05:52:00,